TimeEDT,TemperatureF,Dew PointF,Humidity,Sea Level PressureIn,VisibilityMPH,Wind Direction,Wind SpeedMPH,Gust SpeedMPH,PrecipitationIn,Events,Conditions,WindDirDegrees,DateUTC
12:53 AM,70.0,66.0,87,29.86,10.0,Calm,Calm,-,0.03,,Partly Cloudy,0,2013-08-23 04:53:00
1:53 AM,71.1,66.9,87,29.86,10.0,NNW,5.8,-,N/A,,Overcast,330,2013-08-23 05:53:00
2:53 AM,71.1,66.0,84,29.86,10.0,NNW,5.8,-,N/A,,Overcast,330,2013-08-23 06:53:00
3:53 AM,69.1,64.9,87,29.86,10.0,North,4.6,-,N/A,,Partly Cloudy,10,2013-08-23 07:53:00
4:53 AM,66.9,63.0,87,29.88,10.0,Calm,Calm,-,N/A,,Clear,0,2013-08-23 08:53:00
5:53 AM,66.0,62.1,87,29.91,10.0,NW,8.1,-,N/A,,Clear,310,2013-08-23 09:53:00
7:53 AM,68.0,59.0,73,29.95,10.0,North,5.8,-,N/A,,Clear,350,2013-08-23 11:53:00
8:53 AM,70.0,60.1,71,29.97,10.0,NNW,6.9,-,N/A,,Clear,330,2013-08-23 12:53:00
9:53 AM,73.9,57.9,57,29.97,10.0,North,11.5,-,N/A,,Clear,10,2013-08-23 13:53:00
10:53 AM,77.0,57.0,50,29.97,10.0,North,13.8,-,N/A,,Clear,350,2013-08-23 14:53:00
11:53 AM,79.0,54.0,42,29.97,10.0,North,15.0,20.7,N/A,,Scattered Clouds,360,2013-08-23 15:53:00
12:53 PM,80.1,53.1,39,29.96,10.0,North,15.0,-,N/A,,Clear,10,2013-08-23 16:53:00
1:53 PM,80.1,52.0,38,29.97,10.0,North,13.8,-,N/A,,Clear,360,2013-08-23 17:53:00
2:53 PM,81.0,52.0,36,29.97,10.0,NNE,11.5,-,N/A,,Clear,20,2013-08-23 18:53:00
3:53 PM,81.0,53.1,38,29.98,10.0,NNE,8.1,-,N/A,,Clear,30,2013-08-23 19:53:00
4:53 PM,80.1,54.0,40,29.99,10.0,NNE,9.2,-,N/A,,Clear,20,2013-08-23 20:53:00
5:53 PM,78.1,55.0,45,30.01,10.0,North,11.5,-,N/A,,Clear,350,2013-08-23 21:53:00
6:53 PM,73.9,57.0,55,30.02,10.0,North,8.1,-,N/A,,Clear,350,2013-08-23 22:53:00
7:53 PM,69.1,57.9,68,30.05,10.0,Calm,Calm,-,N/A,,Clear,0,2013-08-23 23:53:00
8:53 PM,66.0,55.0,68,30.08,10.0,North,4.6,-,N/A,,Clear,360,2013-08-24 00:53:00
9:53 PM,64.9,53.1,65,30.10,10.0,North,3.5,-,N/A,,Clear,360,2013-08-24 01:53:00
10:53 PM,60.1,54.0,80,30.13,10.0,Calm,Calm,-,N/A,,Clear,0,2013-08-24 02:53:00
11:53 PM,59.0,52.0,78,30.15,10.0,Calm,Calm,-,N/A,,Clear,0,2013-08-24 03:53:00